RH
93 86 68 67 61 57 55 50 50 47 48 49 50 47 44 40 37 35 32 29 28 28 30 31 30 29 36 50 60 71 65 49 49 65 85 86 80 80 78 81 83 85 87 89 91 91 90 86 90 93 90 90 89 90 93 95 94 94 92 90 87 86 90 89 90 90 88 86 83 82 82 83 84 85 84 84 89 92 92 91 92 93 94 97 96
95 89 70 68 63 56 53 50 50 49 49 49 48 45 41 38 34 31 27 24 22 24 26 30 37 42 55 74 80 70 51 45 69 87 87 83 81 79 79 83 83 85 87 89 90 90 89 84 86 88 88 89 89 91 93 93 91 91 89 85 78 73 72 73 76 80 85 89 89 88 86 88 88 86 85 85 87 91 93 92 90 91 94 95 94
95 92 75 72 64 57 53 50 50 50 50 50 48 43 39 35 32 28 24 20 22 28 31 46 63 68 73 82 79 66 63 66 80 90 87 84 82 80 81 82 83 85 88 91 90 91 91 85 84 87 89 89 89 91 89 87 87 86 83 79 74 70 66 63 60 64 76 84 88 89 89 91 91 91 88 87 87 89 92 93 92 91 93 94 94
96 91 81 80 66 59 55 51 51 51 52 50 49 43 39 38 34 29 25 24 35 43 49 70 80 77 78 77 70 66 79 84 83 89 89 85 83 82 80 82 84 85 90 93 92 92 91 87 88 90 91 90 89 89 87 86 86 82 80 76 71 67 66 67 64 64 74 82 82 80 85 90 91 92 89 87 85 85 89 91 92 92 93 94 95
95 91 87 85 69 62 58 55 53 51 52 49 49 43 43 47 42 36 34 41 57 69 75 87 83 75 77 74 71 69 72 78 87 92 90 88 87 84 81 82 83 87 92 92 92 92 91 90 91 90 90 90 88 86 86 86 86 86 86 83 75 66 62 68 70 68 72 76 76 76 81 85 87 88 88 89 86 85 88 90 91 91 91 93 92
96 93 89 85 71 64 61 60 55 52 51 49 49 45 47 53 55 52 53 63 77 87 87 91 90 77 74 80 86 86 81 79 85 88 92 91 86 84 82 81 84 91 93 93 93 92 93 93 93 92 90 89 89 87 88 89 92 92 91 88 82 73 65 66 69 70 74 77 78 77 79 82 85 88 88 89 89 88 88 88 90 88 86 90 91
96 93 92 85 70 65 65 61 56 53 51 49 49 46 47 55 67 71 74 84 89 89 86 92 94 79 77 92 95 91 92 90 86 86 91 90 86 85 82 82 87 91 92 95 94 92 94 95 96 94 88 85 83 82 82 83 85 87 89 89 87 80 68 68 70 73 80 88 94 93 93 92 89 90 91 89 88 89 88 87 86 87 85 86 89
96 94 91 80 72 73 68 60 57 54 50 49 49 45 44 51 69 80 84 93 94 90 88 91 91 82 85 97 96 90 93 93 88 88 90 87 88 88 85 85 87 90 92 92 92 92 94 94 93 90 85 80 77 74 72 71 72 76 81 84 89 85 71 71 72 73 79 84 91 92 89 84 80 85 88 88 86 86 88 86 85 89 89 84 82
96 94 88 80 81 83 70 61 58 54 51 50 51 46 42 46 59 79 89 92 94 91 88 87 88 91 93 96 96 90 92 93 88 92 93 87 85 86 87 88 88 90 92 92 92 92 92 93 89 88 88 85 80 74 69 69 72 73 76 81 88 87 77 79 82 83 86 83 79 73 68 66 73 82 82 83 85 83 85 85 86 88 91 88 81
97 96 91 89 92 89 72 63 59 55 52 52 53 46 42 42 50 78 93 90 90 91 89 88 90 95 94 92 94 92 93 92 88 91 95 93 87 86 89 92 91 88 90 92 91 91 93 94 90 88 87 83 77 70 69 72 76 76 80 88 90 87 82 86 90 90 91 86 77 72 73 75 80 84 85 87 87 88 87 87 88 87 89 91 88
98 97 96 96 96 93 77 65 62 58 55 55 53 46 46 42 48 74 87 86 87 91 91 89 89 95 96 89 91 95 93 89 86 88 91 95 94 93 93 94 93 91 92 93 94 93 89 89 87 84 80 76 71 67 71 73 76 77 81 89 89 87 82 82 86 89 89 83 77 78 82 83 83 84 85 85 84 86 86 86 88 86 88 92 91
100 97 100 98 95 96 84 70 65 64 61 58 55 50 49 47 56 72 80 85 85 87 87 86 91 96 97 89 91 96 93 89 86 84 84 89 94 94 92 90 91 91 91 91 90 83 76 77 77 76 74 70 67 69 74 74 75 77 80 83 83 83 80 79 83 87 84 78 79 85 83 80 82 82 82 83 83 84 84 85 86 85 88 92 92
100 98 100 98 96 97 89 76 69 70 64 57 58 55 53 55 65 70 74 80 82 87 83 83 93 96 92 86 93 98 94 91 85 84 87 88 90 89 84 77 75 77 78 76 73 69 69 70 70 71 68 66 68 73 76 74 74 75 75 74 73 74 74 77 81 82 80 77 80 83 83 84 85 83 83 85 85 86 86 87 87 87 89 93 92
100 99 100 100 97 94 90 83 78 75 62 51 56 59 59 61 63 60 62 72 82 88 81 80 89 96 93 89 95 98 97 94 84 83 89 90 87 82 72 63 61 65 67 64 64 65 66 66 66 66 63 66 72 75 75 74 73 71 71 67 63 62 65 71 74 75 78 80 81 81 83 87 85 84 87 88 87 88 90 90 89 87 88 91 90
98 99 100 100 98 93 90 89 90 82 63 51 54 60 61 60 57 56 63 75 83 84 83 83 87 95 97 95 97 97 97 97 91 87 87 86 83 78 64 55 53 56 62 61 61 62 63 63 64 61 61 68 74 74 74 74 72 71 70 64 58 55 55 61 69 75 78 81 85 87 89 88 85 86 88 86 87 90 91 90 88 86 87 89 87
96 98 100 100 99 96 92 92 94 87 71 58 58 62 62 61 60 63 71 78 83 83 89 90 88 93 95 96 97 97 97 95 97 94 88 83 80 77 61 51 51 51 55 59 59 59 61 62 59 58 63 70 73 73 73 72 71 71 68 63 59 54 51 56 67 78 80 85 90 91 91 91 90 88 88 87 88 89 89 87 86 89 89 86 82
94 97 100 100 100 99 96 92 93 91 83 73 69 69 70 70 68 71 75 78 82 85 90 92 90 89 88 92 93 96 97 93 97 92 85 85 80 74 63 55 55 51 50 54 56 57 58 57 55 59 67 71 71 71 71 70 71 70 67 65 62 56 52 55 64 76 80 82 86 86 87 89 88 87 87 86 85 85 86 86 86 89 88 82 78
93 95 99 100 100 100 99 94 93 93 90 86 82 80 81 81 77 79 82 79 81 84 87 90 88 84 84 88 86 86 92 93 93 86 84 90 82 73 68 63 59 51 45 47 51 52 52 51 55 64 68 70 70 69 69 70 71 69 69 68 62 55 53 55 64 77 80 80 81 82 86 88 88 87 87 84 84 84 87 91 90 88 87 83 81
94 93 95 99 100 99 100 96 95 95 91 90 89 87 87 86 84 85 86 82 82 84 83 85 86 83 83 86 84 81 86 90 88 84 87 92 84 72 70 69 65 54 43 41 44 44 45 51 60 67 69 71 69 67 69 71 71 69 70 67 58 54 54 55 62 74 80 85 88 86 88 89 88 86 85 86 88 89 90 91 91 90 90 88 87
97 92 92 98 100 100 100 98 98 97 93 93 92 90 89 87 85 85 85 82 81 79 76 79 84 85 86 85 86 84 82 87 90 88 86 89 86 76 71 70 68 58 45 39 39 40 46 57 64 68 72 71 68 67 69 71 70 70 71 64 56 55 54 54 58 67 77 84 88 88 89 88 88 86 85 86 86 89 91 91 92 91 91 92 92
99 95 96 99 99 100 100 100 100 96 93 93 92 91 89 85 83 83 82 78 74 75 77 79 83 85 86 84 87 87 81 83 91 91 86 89 87 77 72 70 68 62 51 41 39 46 54 61 64 71 74 70 68 68 69 70 71 72 70 63 58 56 54 54 57 65 75 83 87 88 89 89 90 90 88 88 86 87 89 90 92 93 91 91 92
99 98 99 99 99 100 100 100 99 94 91 91 90 90 88 82 78 78 78 78 75 78 82 83 85 86 84 81 83 85 82 82 88 90 88 89 86 77 74 71 69 66 59 48 46 53 58 60 66 74 75 71 69 69 70 71 72 73 70 65 61 57 54 56 60 67 77 85 89 88 89 90 90 89 87 89 89 89 90 89 91 93 91 90 88
98 100 100 99 99 99 99 99 98 92 88 88 88 86 86 83 78 75 78 82 81 80 82 86 90 89 85 81 81 82 83 82 84 89 88 88 86 78 74 73 71 70 67 57 52 56 57 61 70 74 73 73 71 70 72 72 73 74 71 67 63 57 54 59 64 70 77 83 89 91 91 90 87 86 85 86 88 89 91 90 90 90 89 88 88
97 99 99 97 99 98 98 97 94 90 86 88 87 86 86 86 82 77 79 84 85 83 79 85 93 93 90 84 83 82 83 83 85 89 86 86 89 81 76 75 72 71 72 66 59 58 57 63 71 72 71 72 72 73 73 73 74 73 71 69 65 58 57 63 68 73 80 85 90 92 91 89 87 86 87 88 88 88 89 90 90 89 89 90 90
96 96 96 95 97 95 94 93 90 88 87 89 89 88 88 87 85 77 76 83 88 86 76 82 92 95 95 91 88 85 85 86 87 91 85 85 89 83 79 77 73 72 73 71 65 59 59 66 71 70 70 71 72 73 73 73 74 73 73 71 65 61 63 67 70 74 83 89 91 92 90 88 88 89 90 89 88 89 89 90 89 88 89 90 91
94 92 97 96 96 91 90 90 89 90 88 89 89 90 91 88 85 79 80 88 91 86 77 80 92 96 97 95 93 88 88 88 88 93 88 85 87 84 81 77 73 72 73 73 69 62 61 68 70 68 71 73 73 73 73 72 72 73 73 72 67 65 68 70 70 73 79 86 89 88 88 88 90 90 90 90 89 90 89 89 89 88 88 89 91
95 93 97 93 93 90 89 91 88 89 91 90 89 92 95 88 84 83 88 95 93 87 79 81 94 99 98 98 96 91 90 89 89 94 92 86 83 83 84 78 73 72 73 74 71 64 63 69 71 72 77 79 79 78 76 74 73 74 74 73 69 67 71 72 71 72 73 77 81 84 88 92 93 91 91 91 89 88 89 90 89 88 88 89 91
97 97 97 91 94 94 90 93 90 89 94 93 90 94 99 94 89 91 96 95 90 86 80 84 95 99 99 99 98 95 92 91 90 92 92 86 80 82 86 81 74 72 72 73 72 66 64 70 74 79 83 81 79 80 81 81 77 76 75 74 71 69 72 73 73 76 73 71 78 88 93 93 90 90 89 88 88 88 89 91 91 90 90 90 91
100 99 98 93 97 99 91 92 95 95 97 95 92 96 100 99 95 95 99 95 89 87 84 91 98 99 99 95 95 95 93 94 92 91 89 83 79 81 86 84 76 73 73 73 73 69 67 69 75 80 78 74 73 72 78 84 81 77 76 74 72 71 73 74 75 80 80 77 83 93 95 90 89 91 88 87 89 91 91 91 92 91 90 89 89
100 100 99 93 94 101 95 93 99 99 100 98 96 99 100 100 99 98 99 95 90 90 91 98 97 95 92 86 89 90 85 86 87 89 88 86 86 83 85 87 81 76 74 74 73 70 69 70 73 76 72 71 69 66 73 82 81 77 77 75 73 73 75 76 76 82 86 85 90 94 93 87 87 91 90 90 93 93 92 90 91 90 88 89 89
100 100 101 98 95 100 99 98 99 97 99 100 99 100 100 100 99 99 99 96 92 92 97 99 91 87 86 82 84 83 79 79 81 83 83 88 92 82 82 88 85 80 76 76 74 70 70 70 71 71 69 69 67 65 69 76 77 76 77 75 74 75 77 77 78 83 87 87 88 89 88 84 82 89 94 95 95 93 89 87 90 90 91 92 91
98 97 99 100 99 100 100 99 98 97 99 100 100 100 100 100 98 99 99 98 92 87 95 97 88 86 86 81 78 79 79 79 82 84 82 85 87 77 77 84 83 83 81 78 75 72 70 70 70 69 69 70 67 66 67 71 74 74 77 76 76 77 78 79 78 80 83 81 82 84 87 88 86 91 97 96 93 91 89 89 90 90 91 92 92
94 95 98 100 100 99 99 98 98 99 100 100 100 100 100 100 99 99 100 100 92 83 89 92 89 88 86 81 77 79 82 81 83 86 88 87 83 77 78 80 78 81 85 82 77 75 73 70 70 69 70 71 68 66 67 71 73 73 77 77 78 79 79 80 76 74 75 77 81 85 90 94 90 90 95 94 91 91 93 93 92 92 91 90 91
90 95 100 99 99 97 95 98 99 99 100 100 100 100 100 100 100 100 100 98 90 84 87 89 89 89 86 80 77 80 84 84 83 86 94 95 87 82 79 78 78 80 85 84 79 78 77 72 70 70 72 71 67 65 66 70 74 77 79 79 80 81 81 79 73 68 69 75 80 83 88 92 92 91 91 91 92 95 96 92 91 92 91 91 92
89 96 100 98 97 93 91 98 100 99 100 100 100 99 99 100 100 100 100 95 89 85 86 86 87 87 84 78 75 79 84 85 84 85 95 99 93 86 80 78 81 83 83 82 80 79 78 74 72 72 73 72 68 68 68 70 76 81 82 83 82 82 83 79 72 67 67 71 74 78 84 91 96 95 88 86 90 93 90 86 88 89 88 91 92
92 96 98 99 98 92 92 98 100 100 100 100 99 98 99 100 99 100 98 94 92 88 86 86 86 84 83 78 74 78 84 87 85 85 93 98 95 88 82 80 83 85 82 79 78 79 78 76 76 74 72 72 71 72 73 76 84 88 86 85 85 84 85 80 72 67 68 71 73 77 83 90 96 93 86 86 87 84 79 79 85 89 90 92 92
95 96 98 100 100 98 97 99 100 100 100 100 100 99 99 98 98 100 96 92 90 88 88 89 88 86 85 84 81 80 84 87 87 87 90 93 95 93 87 85 85 83 83 81 78 79 79 79 80 76 72 72 73 75 78 86 94 96 93 89 88 87 87 82 74 71 71 72 74 77 81 88 92 88 85 88 86 80 77 80 86 91 95 96 95
99 98 99 100 100 100 100 100 100 100 100 100 100 100 100 98 98 98 93 85 82 85 88 90 90 88 90 91 89 86 87 89 90 90 90 90 94 95 88 87 89 84 81 82 80 80 82 80 81 79 74 72 73 75 81 91 97 99 99 96 91 90 89 84 77 77 77 76 76 77 79 82 86 85 82 83 84 82 82 86 89 91 94 96 96
100 99 100 100 100 100 100 100 100 100 100 100 100 100 100 99 98 94 85 77 76 83 86 87 91 92 95 97 95 95 95 94 94 91 90 92 93 92 87 87 91 87 80 80 80 81 85 85 81 78 77 76 75 76 82 93 99 100 100 99 96 93 92 90 85 83 84 83 82 84 84 83 85 83 78 79 81 83 86 90 94 95 94 93 93
100 100 100 100 100 100 100 100 100 100 99 100 99 99 100 100 99 93 82 73 73 79 84 88 94 97 99 100 98 99 99 98 99 95 92 94 93 89 86 86 90 90 81 77 80 81 86 87 82 78 80 87 90 87 88 95 99 100 100 100 100 97 96 94 91 90 90 91 89 90 91 89 90 86 79 78 79 80 86 93 97 97 97 96 94
100 100 100 100 100 100 100 100 100 100 100 100 98 98 100 99 100 96 85 80 80 83 89 93 97 100 100 98 96 95 96 97 97 96 96 97 94 86 88 92 93 93 84 77 79 82 85 85 83 81 82 91 99 98 95 97 99 100 100 100 99 99 99 97 97 96 95 96 95 94 94 92 93 91 86 82 81 82 86 93 97 96 96 97 97
100 100 100 100 100 100 100 100 100 100 100 101 98 99 100 99 99 94 87 90 92 91 92 93 96 100 97 93 93 93 94 97 96 95 97 98 92 83 86 95 96 95 90 84 82 83 86 85 84 86 89 94 99 101 99 96 99 101 99 100 100 100 100 99 100 99 96 98 99 97 96 93 94 95 91 89 90 90 91 94 95 94 94 96 98
100 100 100 100 100 100 100 100 100 100 100 100 100 100 95 95 99 94 90 93 93 92 94 95 97 100 95 87 91 94 92 96 99 97 96 95 88 81 84 93 97 95 92 89 88 86 86 85 84 85 93 99 99 100 98 92 96 101 99 99 99 98 100 100 100 100 98 99 100 99 99 97 97 95 93 94 96 95 94 94 93 93 93 93 97
100 100 100 100 100 100 100 100 100 100 100 99 101 97 87 88 98 97 95 96 94 94 97 100 99 100 97 88 89 95 93 96 100 100 100 96 88 83 86 93 96 95 92 88 87 89 87 86 87 84 89 98 101 101 97 92 93 95 96 98 97 96 98 100 100 101 100 100 100 99 99 100 99 98 97 98 96 94 92 90 91 94 94 92 94
100 100 100 100 100 100 100 100 100 100 100 99 101 98 89 92 100 100 98 98 97 98 99 100 100 100 100 94 89 90 90 91 93 96 100 100 91 85 88 93 96 98 97 88 81 86 88 87 88 85 83 88 96 101 99 96 93 88 88 92 94 95 98 99 98 99 100 100 100 99 99 100 100 99 99 100 99 97 95 92 93 96 95 90 90
100 100 100 100 100 100 100 100 100 100 100 100 100 98 96 97 99 98 98 99 99 100 99 100 100 99 100 98 94 92 89 87 88 92 97 101 96 90 90 95 97 99 99 90 83 86 89 88 87 85 83 81 88 98 101 98 94 89 83 81 83 85 91 96 97 98 100 100 99 99 100 99 99 100 100 99 99 99 99 97 97 99 96 87 86
100 99 99 99 100 100 100 100 100 100 100 100 96 96 98 99 95 89 89 95 98 96 96 99 100 99 99 97 94 94 94 92 92 94 97 99 97 95 96 98 99 99 97 91 86 86 86 87 86 84 82 81 85 95 101 100 96 93 85 80 83 81 80 89 94 96 99 99 99 99 98 99 99 99 100 99 98 99 100 99 98 100 99 90 88
97 97 95 96 97 100 100 100 100 99 100 100 96 96 99 94 89 84 83 88 91 91 96 101 99 97 99 97 96 97 97 98 96 96 97 97 97 99 99 99 99 99 96 90 86 86 85 85 87 85 83 83 83 86 96 101 99 93 86 86 91 85 79 82 84 87 94 98 100 100 99 100 100 99 100 100 99 100 100 99 99 99 100 98 95
94 94 92 92 95 99 100 99 100 99 98 98 96 99 99 89 85 87 86 85 86 91 98 101 98 96 95 95 98 100 99 99 97 96 98 98 99 100 99 100 98 97 96 91 88 88 86 84 85 85 84 84 83 82 87 93 95 91 88 92 94 89 84 84 82 84 91 96 98 100 100 100 100 100 100 100 100 100 100 99 98 97 98 99 99
94 93 91 92 93 97 100 99 100 97 94 93 92 98 100 91 87 87 87 87 90 95 100 100 99 98 96 95 99 100 100 100 99 99 99 100 100 99 99 98 94 93 92 88 89 89 86 85 84 83 82 82 84 84 82 84 88 88 87 90 92 90 90 90 88 88 91 95 96 97 99 99 100 100 99 100 100 100 100 100 98 97 96 96 98
95 94 92 93 93 94 97 100 100 95 91 90 90 96 99 96 90 87 90 95 96 98 100 100 99 98 99 99 100 100 100 100 100 100 100 100 100 99 98 93 89 91 89 86 88 89 86 85 85 85 84 81 82 83 82 83 87 89 87 86 85 84 83 84 85 85 88 94 97 98 97 98 100 100 99 100 100 100 100 100 99 99 99 98 98
Wind_Speed
21 22 24 25 25 24 23 23 22 22 24 24 26 26 27 27 27 27 28 28 28 28 28 27 26 25 25 25 25 24 23 24 26 28 29 26 25 25 24 23 21 20 19 18 18 18 18 19 20 21 22 22 22 22 22 21 20 20 20 20 19 19 18 18 18 19 20 19 19 19 19 19 19 19 19 20 20 20 21 21 21 21 21 21 21
25 23 24 25 25 25 24 23 22 22 23 24 25 26 27 27 27 28 27 27 27 28 28 26 25 25 25 24 24 24 24 26 28 28 28 27 26 25 24 23 22 21 19 18 19 19 19 21 21 22 22 22 22 22 22 21 21 20 20 20 19 18 17 16 16 18 19 19 19 19 19 19 18 18 19 19 19 19 19 19 20 21 21 21 23
25 24 24 24 25 25 24 23 22 22 23 23 25 26 27 27 27 28 27 27 27 27 26 25 24 25 25 24 24 24 25 27 29 29 29 27 27 26 25 23 23 21 19 19 20 20 20 21 22 22 22 22 22 22 22 22 20 20 19 19 18 17 16 15 15 16 17 18 19 20 20 18 18 18 18 18 18 19 18 18 18 19 20 21 22
25 24 24 24 25 24 24 23 23 22 23 23 25 26 26 26 27 27 27 26 26 25 25 24 24 25 24 25 25 25 26 27 28 29 29 28 27 26 25 24 23 22 20 20 20 21 21 22 22 22 22 22 22 22 21 20 19 19 18 17 17 17 16 14 15 16 17 18 18 19 19 18 17 17 17 17 17 18 18 18 18 18 19 20 20
25 23 25 24 24 24 23 23 23 22 22 24 25 26 25 24 25 25 26 25 24 23 23 24 24 25 25 25 25 25 27 27 27 28 28 28 27 26 25 24 23 21 20 21 21 21 21 22 21 21 21 21 21 20 20 19 18 17 16 15 16 17 16 15 15 17 18 18 18 18 18 17 17 16 16 17 17 17 17 18 18 18 19 19 19
24 23 25 24 24 24 23 23 22 22 22 24 24 25 24 23 23 23 23 23 23 22 22 23 23 24 25 25 23 23 25 26 26 27 26 26 27 26 25 24 23 21 20 20 20 21 21 21 20 20 19 19 19 18 17 16 16 15 14 14 15 16 16 15 15 17 18 19 19 18 17 17 17 16 16 16 16 16 17 18 17 17 18 18 18
23 24 25 24 25 24 23 22 21 22 22 23 25 24 24 22 21 21 21 21 21 22 22 22 22 23 25 25 23 23 24 24 24 25 25 26 27 25 25 23 22 21 20 19 19 20 19 19 18 18 18 18 18 16 15 13 12 12 11 12 13 14 15 16 16 17 19 20 20 20 20 19 18 16 16 16 16 16 17 18 16 15 16 17 17
22 24 24 24 24 23 23 22 22 22 22 23 24 24 23 22 20 20 20 20 20 20 22 22 22 22 24 25 23 23 24 24 23 24 25 26 27 26 25 23 22 22 20 19 19 19 18 18 18 18 17 18 17 14 12 10 9 8 8 8 10 12 14 15 16 17 19 19 19 18 18 18 18 17 16 16 16 16 17 18 16 14 15 16 17
22 23 22 24 23 23 23 22 22 21 21 23 24 23 22 22 20 19 19 19 19 19 21 21 21 21 22 24 23 22 23 24 23 23 23 23 24 25 25 24 23 23 20 20 19 18 18 17 18 17 16 16 14 12 10 9 9 10 10 9 9 11 13 15 16 18 19 18 17 16 16 17 18 17 16 16 16 16 17 18 17 14 15 15 16
21 21 21 24 23 23 23 23 22 20 21 23 24 23 22 21 20 19 19 19 19 18 20 20 20 21 20 22 22 22 23 23 22 23 23 20 20 21 23 23 23 23 21 20 19 19 18 17 17 17 16 14 11 10 10 10 12 13 13 12 10 12 13 15 16 18 19 18 18 19 19 19 19 17 16 16 17 17 17 18 17 15 15 15 16
20 20 20 23 22 22 23 23 21 20 21 22 23 22 22 21 20 20 19 18 18 18 20 20 20 20 19 19 21 22 22 20 21 22 21 20 19 18 20 20 21 22 21 20 19 18 18 17 17 16 14 12 9 9 10 11 12 13 13 13 12 12 13 14 16 17 18 19 20 19 19 18 18 17 17 16 17 17 16 17 16 16 16 15 16
19 19 20 22 21 22 22 22 21 20 19 21 22 21 21 20 19 19 19 18 17 17 19 21 20 19 18 18 20 21 20 18 19 20 19 19 17 17 18 19 20 20 20 19 18 18 19 19 17 15 12 10 8 8 10 11 12 12 13 12 12 12 12 13 15 17 17 19 19 18 17 17 17 17 17 17 16 16 16 16 16 16 15 15 16
19 18 19 21 20 21 22 22 21 19 19 20 21 20 20 19 19 18 18 18 17 17 19 21 20 19 17 17 19 20 19 18 18 18 18 18 16 16 17 19 20 20 20 19 19 19 20 18 16 14 11 10 8 8 10 11 12 12 12 12 11 11 12 14 15 16 17 19 18 17 17 17 17 17 16 17 17 16 16 15 15 15 14 14 15
18 17 19 20 19 20 20 21 20 19 18 19 19 20 19 18 18 17 17 18 17 17 17 19 20 19 17 17 18 18 18 17 17 17 17 17 15 15 18 19 20 20 20 20 20 19 19 17 15 12 11 11 9 9 10 11 11 11 12 12 11 11 12 13 15 17 18 19 18 17 17 16 17 17 16 16 17 16 15 15 15 14 13 14 14
17 18 20 19 19 19 19 20 19 18 18 18 19 19 19 17 16 16 16 17 17 17 17 18 19 18 17 17 17 17 17 17 17 15 15 15 14 15 17 18 19 19 20 20 20 19 18 16 14 12 12 11 9 8 9 11 11 11 12 12 12 11 12 13 16 18 20 19 17 17 16 15 15 16 16 16 16 15 15 15 15 14 13 13 13
15 17 20 19 20 19 18 18 18 17 17 17 18 18 18 16 16 16 16 16 17 18 18 18 18 18 17 16 16 16 16 16 16 15 14 13 13 13 15 17 17 18 18 19 19 18 17 15 13 12 12 10 9 8 9 11 11 11 11 12 12 12 12 14 17 18 20 19 17 17 17 15 15 16 15 15 14 15 15 16 15 13 13 13 12
15 17 19 19 20 19 17 17 17 16 16 17 17 18 17 16 16 16 16 15 17 18 18 17 17 18 17 16 15 15 15 15 15 14 13 12 12 12 14 15 16 17 18 19 18 17 16 15 14 13 11 10 9 9 9 11 11 11 11 12 12 12 13 15 17 17 18 17 16 16 16 15 15 15 14 14 15 15 15 15 14 13 13 13 12
14 17 18 19 19 19 18 17 15 15 16 16 16 16 16 16 16 16 16 15 16 17 16 16 16 17 16 14 13 13 14 14 14 14 12 12 11 11 13 14 14 15 17 18 18 17 16 16 15 13 11 10 10 10 10 11 11 10 11 11 12 12 13 14 16 17 17 16 16 15 14 14 14 13 14 15 15 15 15 15 14 14 13 13 12
14 15 17 18 18 18 18 16 15 15 15 15 15 15 15 15 16 15 15 15 16 16 15 15 15 15 15 14 13 12 13 12 13 13 13 11 10 11 13 13 13 13 15 17 18 18 17 17 15 12 11 11 12 11 11 12 11 10 10 11 12 12 12 13 15 15 16 16 16 14 14 14 13 13 13 14 13 14 15 15 14 13 13 13 12
13 14 16 18 17 17 17 16 15 15 15 15 15 15 14 15 15 14 14 14 15 15 14 14 14 14 14 14 13 13 13 12 11 12 12 11 9 11 13 12 12 12 14 16 18 19 19 18 15 12 12 13 14 14 13 12 10 10 10 11 11 11 11 12 13 14 15 15 15 14 13 12 11 11 12 12 12 13 14 13 13 12 11 11 10
13 14 16 17 17 16 16 15 15 15 16 16 15 14 14 15 15 13 13 13 14 14 13 14 14 14 14 14 14 13 14 13 12 11 11 11 10 11 13 12 12 12 13 15 18 20 20 18 15 13 13 14 16 15 14 12 10 9 10 11 11 10 11 11 12 13 14 14 15 14 12 10 10 10 10 11 11 11 12 11 11 11 10 9 8
14 15 16 16 17 16 15 15 15 15 16 16 15 14 13 13 14 14 14 14 14 14 14 14 14 15 14 14 15 14 15 15 14 12 12 12 11 12 13 12 12 12 13 15 18 19 19 17 15 14 14 15 16 16 15 12 10 9 9 10 10 10 10 11 12 13 13 14 14 12 11 10 10 9 9 9 10 10 10 10 10 10 9 9 9
15 16 16 16 16 16 15 15 15 16 16 15 15 14 13 13 13 15 15 15 15 14 15 15 15 16 15 15 16 15 15 15 15 13 12 12 11 12 13 12 12 12 12 15 16 17 18 17 15 14 14 15 16 16 15 13 11 9 8 8 10 10 10 11 11 12 12 13 13 11 10 10 10 9 8 9 9 9 9 9 9 9 9 10 10
17 16 16 17 16 16 16 16 16 17 16 16 16 15 15 14 15 16 16 15 15 15 16 16 15 16 16 16 16 15 15 15 14 13 12 12 11 12 13 13 13 13 12 14 16 16 17 16 15 14 13 14 15 16 15 14 12 10 8 8 9 11 11 11 11 11 12 12 12 11 10 9 10 9 8 8 8 9 9 8 8 9 10 10 11
19 17 16 18 17 17 16 16 17 17 17 17 17 16 16 16 16 17 16 16 15 15 17 17 16 16 16 16 15 14 14 14 14 14 13 12 12 12 13 13 13 13 12 13 15 16 17 16 14 13 13 14 15 15 15 14 12 10 9 8 9 10 10 10 10 11 11 12 11 11 10 10 9 8 8 8 8 8 8 8 9 9 9 10 10
18 17 18 19 18 18 17 18 18 17 17 17 18 18 17 18 18 18 17 16 15 15 17 17 16 15 16 16 15 14 13 14 15 15 14 13 12 12 12 13 13 13 13 12 14 16 17 16 14 13 13 13 14 14 14 13 12 10 9 8 9 9 9 9 9 9 10 11 11 10 10 10 9 8 7 7 7 7 8 8 9 9 9 9 10
18 17 18 19 17 19 19 19 18 16 17 18 18 18 18 19 19 18 17 16 15 15 17 18 17 15 15 15 15 15 14 14 15 15 15 15 13 12 12 13 14 14 13 12 13 16 17 16 14 13 13 13 13 13 13 12 10 10 9 8 8 8 8 8 8 9 9 10 10 10 10 10 9 8 8 7 7 7 8 8 8 9 9 8 9
19 18 18 18 18 21 20 18 18 18 19 19 19 19 19 20 19 17 16 16 15 16 17 18 16 14 13 13 13 14 15 15 15 15 15 15 13 13 13 13 14 15 14 13 13 15 17 17 15 14 13 11 11 10 10 10 9 9 9 9 8 7 7 7 7 8 9 10 11 11 11 9 7 7 7 7 7 7 7 7 8 9 9 8 8
20 20 20 20 20 22 21 19 19 20 21 21 20 21 20 19 18 17 16 16 16 18 18 17 15 13 13 13 13 14 15 15 16 16 15 14 14 15 14 12 14 15 15 14 13 15 16 16 16 14 12 11 9 8 8 9 9 8 8 9 9 7 7 7 7 8 8 10 11 10 10 9 7 6 6 7 7 7 7 7 8 8 8 8 8
22 21 22 23 22 21 21 22 21 20 21 21 20 21 20 18 18 18 18 17 17 19 19 17 16 16 17 17 16 15 14 15 15 15 15 15 15 15 15 13 13 15 16 15 14 14 15 15 15 13 11 10 8 7 8 8 8 9 9 9 9 8 7 7 7 7 8 9 10 9 9 8 8 7 6 7 6 6 7 6 6 6 6 7 7
23 23 23 24 24 21 20 21 22 22 22 22 20 20 19 19 18 19 19 18 19 19 19 18 19 20 20 19 18 16 15 15 15 15 15 16 16 14 14 15 14 14 15 15 15 14 15 14 14 12 10 9 8 7 7 8 8 9 10 9 9 9 8 8 8 8 8 8 9 9 8 8 9 8 6 6 6 6 6 5 5 5 6 6 7
24 25 24 23 23 21 20 21 22 24 24 21 19 19 20 19 19 19 20 19 19 19 19 19 20 20 20 20 19 18 17 16 16 15 14 14 15 14 14 15 16 16 16 15 15 15 14 13 13 12 10 9 8 7 7 7 7 9 10 10 10 10 10 9 9 9 8 8 9 9 9 9 8 8 7 7 6 5 6 5 5 5 5 5 6
25 25 22 22 23 23 23 24 24 24 23 21 19 20 21 20 19 20 20 20 19 18 19 20 20 21 21 20 20 20 19 17 16 16 14 14 14 13 15 15 15 17 17 16 16 16 14 13 12 11 10 9 8 8 8 8 9 10 11 11 11 11 10 10 9 9 9 9 9 9 9 9 8 7 8 7 6 5 5 5 5 5 5 5 5
24 24 20 20 23 24 25 25 25 23 21 21 21 21 21 20 19 20 21 21 20 18 18 19 20 22 22 20 20 20 19 18 17 16 16 15 14 13 14 14 13 14 17 17 17 16 15 13 13 12 10 9 9 9 9 10 11 12 13 13 12 12 11 10 10 9 9 9 8 9 9 8 8 7 6 7 6 5 5 4 4 4 5 5 5
23 22 20 20 23 25 25 25 23 21 21 21 21 21 21 21 21 20 20 19 18 16 16 17 19 23 24 21 20 21 21 20 18 17 17 16 15 14 14 13 12 12 15 18 18 17 15 14 13 13 11 10 11 11 11 11 12 14 15 15 14 13 12 11 10 9 9 8 9 9 9 8 7 5 6 8 7 5 5 5 5 4 5 5 4
22 20 19 19 21 24 24 24 22 21 22 21 20 21 20 20 20 19 17 16 15 15 16 16 18 22 24 22 21 22 21 20 19 18 17 16 15 15 15 13 12 12 14 16 18 17 16 14 13 13 14 13 13 13 12 11 12 14 16 16 15 14 12 11 10 10 9 9 9 8 8 7 6 6 8 9 7 5 6 7 7 6 6 5 5
18 17 18 17 18 20 22 22 22 21 21 21 20 20 19 18 18 18 16 14 15 15 15 15 17 20 22 23 23 22 22 20 19 18 17 17 17 16 16 14 13 13 13 15 17 17 16 14 13 13 14 14 14 14 12 10 11 13 15 16 16 14 13 12 10 10 10 9 9 9 7 7 6 7 9 8 7 7 8 8 8 7 6 5 5
11 12 14 14 15 17 19 20 20 19 20 19 19 19 17 16 17 18 16 16 17 16 15 15 18 21 23 25 25 23 23 21 20 19 18 18 18 17 17 16 14 14 15 16 17 17 16 15 15 14 14 14 15 14 13 11 11 11 13 14 15 14 12 12 11 11 10 10 9 9 8 8 7 8 9 8 8 8 8 7 7 7 7 6 5
9 10 11 13 14 15 16 17 17 17 17 17 18 18 16 16 17 16 16 17 18 16 15 16 18 21 23 23 22 22 22 21 20 19 18 18 17 17 18 16 14 16 18 18 18 18 17 17 17 16 15 13 13 14 14 13 12 11 11 12 13 13 12 12 12 11 10 9 9 9 8 8 8 8 8 8 8 8 7 5 4 5 6 6 5
10 11 12 13 14 15 15 16 17 17 17 17 18 18 17 16 17 16 16 17 17 16 16 17 17 19 20 17 16 17 19 19 19 18 18 17 16 17 18 16 15 18 21 21 20 19 18 19 18 17 16 13 11 13 14 16 16 13 12 12 12 12 12 11 11 11 11 10 10 9 8 8 8 8 8 9 8 8 6 4 3 3 3 4 5
11 12 13 14 15 15 16 16 16 16 17 17 18 18 14 13 12 13 14 15 16 16 16 18 17 17 17 16 16 16 17 18 18 18 17 16 16 17 17 16 18 21 23 23 21 19 20 20 19 18 16 14 13 13 16 19 18 13 11 11 10 10 11 10 9 9 11 12 10 10 10 9 8 9 9 9 9 8 6 4 3 3 2 3 4
8 10 12 14 14 13 14 15 15 16 16 16 18 15 11 9 9 12 14 15 17 18 19 19 17 15 16 17 18 18 18 18 18 18 17 16 17 17 16 17 21 23 23 22 21 20 21 21 20 18 16 16 16 16 19 19 15 12 11 9 6 5 6 6 5 4 7 11 10 10 11 9 9 10 10 9 9 8 7 6 4 3 3 2 2
5 7 10 11 11 11 12 12 12 13 14 15 15 12 11 12 12 13 13 13 16 18 18 18 15 14 15 17 18 18 18 18 19 19 18 18 19 18 16 19 24 24 23 23 22 21 22 22 21 20 18 18 17 18 20 18 15 15 11 6 3 3 3 3 4 3 4 7 7 8 9 9 8 8 10 9 8 8 7 6 5 3 3 2 2
5 5 8 10 9 10 11 10 9 10 12 14 14 15 16 16 14 12 11 11 14 16 17 17 15 15 16 17 18 17 17 18 19 19 19 19 20 18 17 21 25 25 24 24 23 22 22 22 22 22 22 21 19 19 19 16 20 19 9 2 2 3 2 3 5 4 3 4 4 6 7 7 6 5 7 8 7 7 7 6 5 4 3 3 3
5 4 5 8 9 9 10 10 10 10 12 14 16 19 19 16 11 8 8 10 12 14 15 17 17 16 16 18 19 18 18 17 18 19 20 20 20 19 19 23 26 26 25 24 23 21 21 22 23 23 24 23 21 21 19 16 20 20 11 5 3 2 2 4 6 4 4 4 4 5 5 5 5 5 6 7 8 7 6 5 5 4 3 3 3
4 3 3 5 7 9 10 10 11 11 13 16 18 21 21 15 11 9 10 11 11 13 16 17 17 17 17 19 19 19 18 17 17 19 21 21 20 19 21 24 26 26 24 22 21 21 21 22 23 23 24 23 22 22 20 19 21 16 10 8 5 3 5 7 6 2 3 4 4 4 4 4 5 6 6 7 8 7 6 6 5 5 4 3 4
2 2 2 4 7 10 10 11 12 13 15 18 19 21 20 15 15 17 19 18 17 19 21 18 15 15 17 18 18 19 18 18 19 21 23 22 21 21 23 25 25 24 22 20 19 20 21 21 22 22 23 23 22 23 22 22 22 16 10 9 4 3 10 11 6 3 3 4 4 5 5 5 5 5 5 6 7 7 6 6 5 5 5 4 4
2 2 1 3 8 11 11 11 12 15 19 21 22 22 19 18 21 24 24 24 23 23 21 15 13 14 15 16 19 20 21 20 19 21 23 22 23 24 24 25 24 22 20 19 19 19 20 20 21 22 23 23 22 22 23 24 23 18 14 9 3 5 12 11 8 7 5 3 5 5 5 4 5 5 5 5 6 8 7 6 5 5 6 5 4
1 1 0 2 6 10 12 12 12 15 20 23 25 24 21 22 25 27 28 27 26 24 18 12 13 14 14 17 21 22 21 20 19 19 22 23 24 25 24 25 24 21 19 18 18 18 20 21 21 22 22 23 22 21 23 25 24 21 18 11 5 9 11 7 8 9 6 4 4 4 5 5 5 5 5 4 5 6 6 5 5 5 5 5 5
2 2 2 2 6 10 14 16 15 17 21 24 25 25 25 25 26 29 31 29 25 22 16 12 13 13 13 18 21 19 18 20 20 20 22 23 23 24 24 24 23 20 18 17 18 19 19 20 20 21 21 22 21 19 19 22 23 21 19 14 10 12 10 5 8 10 5 4 4 5 7 6 4 5 4 4 4 5 5 4 4 3 3 3 4
4 4 4 4 6 10 14 18 20 24 26 26 25 24 26 27 28 29 30 28 23 19 15 13 13 12 15 18 17 15 15 18 20 21 22 22 22 24 23 22 20 19 18 17 19 20 19 18 19 19 20 20 19 17 16 18 21 20 18 16 14 12 10 6 10 13 9 5 5 5 8 7 5 6 4 4 3 4 4 4 4 3 3 3 4
Wind_Direction
173 168 168 164 161 158 155 154 151 151 149 149 146 144 143 142 141 141 141 141 141 141 140 139 138 137 133 130 127 125 124 122 119 115 111 112 112 111 112 112 113 109 105 103 101 100 100 102 103 102 102 103 103 102 101 99 97 95 92 90 88 87 88 91 93 92 91 89 89 89 87 87 86 85 85 82 79 76 73 74 75 75 74 74 76
170 167 169 164 163 160 157 156 154 153 150 149 147 145 144 143 143 142 141 140 141 140 139 138 135 133 130 127 125 126 123 119 117 116 115 115 114 114 114 114 111 109 107 104 103 102 102 105 104 101 100 102 102 101 100 98 97 95 93 90 88 86 86 90 96 98 97 94 90 87 83 82 83 83 83 82 79 76 73 70 71 73 72 73 75
164 164 167 163 164 162 159 158 157 155 152 150 147 146 144 144 143 142 141 140 140 139 137 133 131 131 129 128 127 125 120 118 119 120 119 117 117 116 116 116 114 111 107 102 102 102 103 106 104 101 101 103 102 101 99 97 96 95 94 92 89 85 83 88 95 101 104 103 98 93 87 81 79 79 81 81 81 78 76 73 70 70 71 72 75
161 162 164 161 164 162 160 160 159 156 154 152 148 146 144 144 143 142 140 139 138 136 134 130 130 130 129 129 127 124 122 121 122 122 121 121 120 119 120 118 115 113 108 103 103 104 105 105 103 103 103 103 102 100 99 97 97 96 94 91 88 82 80 90 99 102 105 106 103 100 94 86 79 75 76 76 79 79 77 76 73 71 70 70 72
159 161 162 161 164 162 161 161 160 157 155 155 150 147 145 143 142 142 140 137 135 132 131 130 131 131 130 128 124 121 121 123 123 124 124 124 123 122 122 120 117 114 109 107 105 106 107 104 103 103 103 102 102 101 100 99 98 95 91 88 83 78 79 90 100 104 105 106 104 101 96 89 82 76 75 74 74 76 74 73 71 71 71 70 71
159 161 162 161 164 163 162 161 159 157 158 157 153 149 146 143 142 140 139 136 133 131 130 130 130 131 129 126 124 121 119 120 123 125 125 125 125 125 125 124 121 115 110 109 107 108 108 106 104 104 105 104 105 105 103 101 99 95 92 90 84 80 83 91 97 101 102 102 101 99 98 94 88 82 80 78 75 72 73 72 71 72 72 71 72
159 160 162 162 163 164 164 162 158 157 159 159 155 151 148 144 141 138 136 133 131 131 130 129 130 131 129 125 124 123 120 119 121 123 126 126 127 128 127 126 123 119 114 111 111 111 109 106 105 104 106 106 106 105 102 100 97 95 93 92 90 86 88 94 100 103 103 100 98 98 98 97 93 87 81 79 76 73 73 73 74 73 73 73 74
159 162 165 164 163 164 164 162 159 158 160 159 156 151 149 145 141 137 135 132 131 131 129 130 130 131 129 127 126 124 122 120 120 121 125 129 131 131 129 128 128 127 121 118 117 113 111 108 105 102 102 103 102 100 95 90 87 92 100 103 98 94 94 99 105 108 105 100 99 99 98 96 94 88 82 80 77 77 79 78 76 74 72 72 73
161 164 166 164 162 164 164 163 159 159 160 159 156 152 149 147 143 137 134 133 130 130 130 130 130 132 131 129 128 125 123 121 122 123 125 129 132 133 134 135 136 134 126 123 121 116 114 109 106 103 103 105 103 97 86 77 79 89 106 121 116 105 102 101 105 107 105 101 98 97 95 95 95 91 87 85 83 82 84 83 80 77 72 71 70
162 164 165 163 162 165 165 163 159 159 160 159 157 154 150 149 146 138 135 133 130 131 131 131 133 134 133 132 129 127 126 124 127 129 128 128 130 131 133 135 135 134 128 125 124 121 116 110 109 109 111 111 104 94 83 79 81 88 100 117 123 113 108 107 108 107 105 101 96 94 91 92 93 93 92 89 87 84 85 84 80 79 74 73 73
162 163 165 163 163 167 164 162 159 157 158 159 159 156 153 152 149 141 137 134 132 133 132 133 135 134 134 133 131 129 128 127 132 134 132 131 130 129 130 131 131 133 130 128 126 123 119 116 117 117 115 109 98 89 83 86 89 92 100 112 121 117 112 112 113 109 106 100 96 97 97 96 94 93 94 92 90 86 86 84 81 81 77 74 77
162 164 164 163 165 167 164 161 157 155 156 159 161 158 156 154 149 143 138 136 136 137 136 135 135 134 134 136 134 130 130 130 134 135 136 135 131 130 131 132 134 136 133 130 128 126 125 124 124 121 114 105 96 88 87 96 101 101 104 110 116 117 116 117 116 111 106 102 100 100 103 102 99 98 96 94 93 91 90 88 85 85 80 74 76
160 163 162 162 166 168 163 159 156 153 155 160 162 160 157 154 148 145 143 142 141 141 140 138 136 135 136 138 136 132 133 133 135 135 136 135 131 134 134 137 141 142 141 138 135 133 131 130 128 122 115 108 99 89 93 104 106 103 102 101 105 111 116 119 118 113 109 107 106 104 105 103 99 99 97 96 95 93 92 91 89 88 85 77 76
159 160 160 162 166 167 163 157 156 155 156 161 162 160 157 154 152 151 150 146 143 142 140 138 136 136 138 140 138 135 135 135 135 133 131 131 133 137 138 140 143 147 148 146 143 140 137 135 130 124 120 111 100 91 96 107 109 102 95 91 94 103 111 117 117 115 111 108 105 102 103 101 98 100 98 96 95 93 93 91 87 87 88 82 80
158 159 160 163 162 164 165 158 156 158 157 159 162 161 159 159 158 156 151 146 146 145 142 140 140 139 139 140 140 138 137 136 134 131 131 133 136 138 137 139 141 148 152 151 148 145 142 138 132 128 124 111 100 94 98 110 113 102 92 87 89 96 104 112 115 115 112 108 104 101 101 99 100 101 99 98 98 96 93 89 86 86 88 84 84
157 160 161 162 160 162 165 162 161 161 156 158 162 161 162 162 159 156 151 149 151 148 144 142 143 143 141 142 141 140 140 137 135 136 136 136 136 136 136 137 139 146 153 155 153 150 146 140 135 132 124 111 101 93 98 111 113 102 92 88 88 94 102 109 114 116 114 112 108 107 106 101 99 98 98 99 98 94 92 91 89 88 86 84 87
159 160 162 161 160 161 165 167 164 163 159 159 163 162 164 162 158 156 151 153 153 149 145 143 148 149 145 145 144 142 142 140 140 140 139 136 134 134 134 135 137 144 153 158 157 153 148 141 138 134 125 114 103 96 102 112 112 104 94 89 87 94 103 108 113 116 117 116 115 115 109 100 98 98 97 95 93 93 93 93 92 90 85 85 89
159 162 162 162 162 161 165 168 166 164 161 160 163 163 163 160 157 156 153 155 155 151 148 147 152 152 145 145 145 143 143 145 146 143 143 140 136 136 133 132 135 142 151 157 157 152 147 142 139 134 125 115 104 100 107 114 114 106 94 86 85 94 103 105 109 114 116 114 112 113 108 101 100 100 97 96 97 98 97 94 92 90 88 90 92
155 163 161 163 164 163 166 167 168 166 163 163 163 163 163 161 158 157 156 156 157 154 150 150 155 153 147 148 145 142 145 149 151 146 146 145 139 139 134 132 136 141 149 154 154 151 147 142 139 133 123 112 103 102 111 117 117 107 91 82 82 91 99 101 104 109 112 109 107 107 105 103 100 97 96 97 99 100 99 98 96 94 92 93 94
153 163 161 162 165 164 167 166 169 169 167 167 164 165 166 164 161 161 160 160 161 160 154 152 156 155 152 151 147 146 149 156 157 151 151 149 141 140 137 136 139 140 146 151 151 149 146 141 138 132 119 110 107 110 118 122 120 108 92 84 83 89 97 99 100 105 109 109 105 102 101 102 102 100 98 98 98 98 99 99 98 98 96 94 93
152 161 161 162 167 165 166 169 171 170 172 171 169 168 169 170 167 166 167 168 168 165 157 154 157 156 156 155 153 152 156 164 165 161 159 150 143 142 139 139 143 141 143 148 149 147 144 140 139 129 116 112 113 119 125 127 124 110 96 90 87 90 98 100 100 104 108 108 103 100 103 105 104 102 100 101 101 100 99 97 97 97 97 95 89
151 156 162 164 167 166 166 171 172 173 175 173 171 166 169 177 177 176 176 176 175 169 161 160 164 162 163 162 160 160 161 170 173 170 164 153 148 146 142 145 147 143 141 145 147 146 143 141 139 127 117 115 119 125 130 131 126 113 104 101 95 95 102 104 103 106 108 110 110 109 112 109 104 101 98 100 99 100 100 101 101 99 101 97 89
154 153 163 168 167 166 169 175 174 175 177 172 171 169 171 180 184 184 181 179 179 175 169 169 173 171 172 171 168 166 166 174 178 171 164 160 155 148 148 151 151 147 143 145 148 147 144 143 140 129 120 120 123 127 131 132 129 121 116 111 103 101 106 110 109 110 112 114 117 118 115 111 109 106 101 101 100 98 97 98 100 99 101 97 90
155 154 159 168 169 171 175 180 180 179 179 174 173 176 179 183 186 186 185 182 181 183 179 176 180 180 180 179 175 172 171 175 179 174 167 166 160 152 156 159 156 154 149 149 151 150 147 145 141 133 124 124 127 129 131 133 133 129 125 120 110 107 111 113 113 114 114 114 117 118 115 112 112 112 110 107 102 100 98 96 96 98 99 97 96
153 156 157 166 169 175 180 184 187 183 181 181 179 182 186 187 188 188 188 185 184 188 185 183 187 188 186 182 179 177 176 176 179 179 172 170 164 156 163 166 162 159 155 154 155 153 150 148 145 137 128 126 128 129 130 131 134 134 132 127 117 113 114 114 117 118 118 117 120 126 127 124 121 119 115 111 107 104 100 97 95 98 99 96 97
158 157 157 164 168 178 187 188 190 187 187 192 188 187 190 190 191 189 188 188 188 190 189 189 191 192 189 184 182 183 183 181 183 183 177 176 171 161 169 172 168 164 160 159 158 157 153 152 149 141 132 127 127 129 130 129 133 137 138 134 125 120 118 118 121 125 129 131 135 140 134 125 121 120 116 113 111 105 100 98 95 98 98 97 99
167 164 160 166 176 183 187 188 189 191 194 201 199 193 194 195 193 189 188 190 189 191 192 193 194 193 191 188 185 187 191 189 189 189 184 186 179 167 173 176 174 171 167 164 162 161 158 156 151 144 137 129 127 130 133 133 137 142 143 140 133 129 125 125 127 132 140 144 146 138 123 121 124 124 121 117 112 108 105 99 95 97 96 94 96
174 178 176 176 182 181 183 188 192 197 199 203 204 200 199 197 193 187 190 194 191 194 196 197 198 191 188 193 193 195 198 196 195 195 193 195 190 178 177 179 179 179 175 169 167 165 164 162 154 149 144 137 132 135 141 143 147 152 151 148 144 142 138 136 135 137 142 147 144 130 128 138 135 129 127 124 119 114 109 100 97 99 98 98 96
180 185 189 189 185 179 184 194 194 197 200 205 207 204 201 196 191 187 190 199 197 196 198 199 195 185 189 199 201 203 204 204 203 202 201 201 200 190 182 180 182 186 183 175 171 169 170 168 161 157 155 149 144 146 153 152 154 162 162 155 151 152 151 148 145 142 141 142 138 134 148 151 128 124 125 123 125 116 107 102 102 102 100 100 96
187 189 191 195 195 188 191 199 198 200 204 208 209 203 200 195 193 192 195 203 202 199 198 198 196 193 197 202 203 205 208 213 212 209 207 204 204 199 189 184 186 191 191 182 174 173 175 175 169 168 166 158 154 149 157 160 158 167 170 162 157 160 160 156 153 152 147 143 143 146 156 148 131 137 127 119 126 118 111 107 105 104 100 94 90
191 193 194 196 199 198 201 205 207 210 212 214 211 201 197 197 197 198 202 208 207 203 200 201 205 204 202 201 201 201 207 216 219 215 210 206 205 203 196 193 195 197 196 190 181 178 180 181 177 178 175 165 159 146 153 166 164 170 174 169 164 166 167 163 161 162 159 153 155 154 147 139 138 143 133 124 127 121 118 112 103 105 102 96 98
195 198 199 197 197 201 205 209 211 213 213 213 209 200 197 201 204 203 205 209 209 206 206 209 212 211 207 202 201 200 204 212 218 220 215 208 206 204 201 200 204 203 200 195 189 187 188 187 184 184 180 170 166 154 156 172 174 175 176 173 172 171 170 168 167 167 166 161 157 152 140 134 136 141 138 134 133 127 122 115 112 116 106 94 103
201 203 200 196 197 202 205 210 211 212 210 206 204 202 201 203 206 205 206 211 211 208 212 217 217 215 212 207 205 204 206 210 214 222 222 214 208 204 202 202 205 206 204 199 195 198 198 193 189 187 183 175 171 163 162 175 181 178 176 177 175 174 173 170 170 170 169 162 154 149 144 141 141 145 147 145 142 134 128 124 122 116 100 97 108
204 202 198 193 197 204 206 209 210 209 208 206 204 205 205 202 200 203 210 215 212 209 216 224 222 216 215 213 210 209 212 214 214 220 223 219 214 206 202 201 203 206 206 203 200 203 204 200 195 190 184 179 175 169 170 178 180 178 176 178 177 175 175 172 170 169 167 161 153 152 152 153 152 151 156 158 151 138 133 123 115 105 97 110 115
207 200 197 194 198 206 208 208 209 207 208 209 208 207 207 202 202 207 213 216 213 213 219 228 225 215 213 215 216 217 218 217 216 217 220 222 219 210 204 200 200 205 207 205 203 203 204 203 199 192 183 177 176 171 175 180 177 175 175 175 177 176 176 176 171 167 167 162 155 156 156 157 162 165 165 160 149 139 134 120 113 105 103 116 114
208 199 198 196 202 209 209 208 208 207 209 211 212 212 211 207 208 209 212 216 219 225 227 229 225 215 214 218 221 223 223 221 217 217 219 221 222 215 208 202 199 201 204 205 203 200 201 201 199 197 188 177 175 173 176 178 170 169 173 175 176 178 178 178 173 166 166 164 159 158 157 159 167 171 160 151 139 126 127 125 118 107 103 105 103
207 201 199 198 205 212 212 211 209 209 210 212 214 216 214 212 213 209 207 215 225 232 234 230 227 223 223 224 226 227 226 225 221 220 220 220 223 221 211 205 203 204 205 205 202 199 201 200 193 195 195 184 176 172 169 166 157 160 169 173 176 178 179 178 174 170 169 167 163 159 158 165 170 167 158 150 141 129 130 128 118 115 115 104 97
205 204 203 203 210 217 218 216 213 211 212 214 217 217 216 215 215 210 208 218 230 238 239 237 235 235 235 231 229 228 227 227 225 223 221 221 225 223 211 206 211 214 211 209 206 203 205 204 192 188 194 191 181 174 168 161 152 153 161 169 176 179 180 180 177 177 176 171 167 161 159 168 172 168 162 158 155 146 140 133 119 122 124 115 111
203 203 203 208 213 219 223 222 219 215 216 221 222 218 215 215 213 212 214 221 231 239 244 246 244 244 243 237 232 229 228 227 225 222 220 221 224 220 210 205 218 223 213 209 210 209 206 200 193 187 187 190 189 179 167 158 152 152 157 164 174 180 182 184 184 186 184 180 176 170 168 172 174 174 170 169 172 166 155 145 134 137 139 136 134
200 201 200 207 211 215 219 219 218 215 217 223 226 222 214 213 214 215 222 230 234 241 248 251 250 253 253 248 241 238 236 232 227 224 221 222 221 217 209 205 218 221 210 208 210 210 202 194 191 189 184 178 176 172 161 154 148 148 156 164 173 183 185 185 191 195 193 193 188 182 186 185 181 182 180 182 187 183 174 169 172 173 171 162 155
193 197 198 204 211 215 217 216 216 216 216 221 231 232 221 217 223 225 230 239 243 246 249 251 253 258 260 260 258 254 250 241 232 229 225 222 218 214 208 207 217 216 208 207 208 205 198 192 190 189 188 175 163 164 160 151 142 139 147 152 157 170 179 186 197 202 200 201 196 192 198 199 197 196 192 194 196 198 198 197 208 214 206 189 176
180 189 196 203 212 221 222 219 218 220 221 229 238 239 233 231 244 247 242 242 247 249 250 252 253 254 260 263 258 256 257 248 237 232 228 222 220 216 209 209 216 215 207 204 204 200 195 194 192 185 182 175 165 163 161 153 144 142 140 130 122 132 154 175 182 182 194 200 199 200 206 211 217 209 199 203 206 209 213 212 220 228 227 220 186
155 179 192 200 214 227 225 220 220 222 227 234 233 232 238 239 243 253 255 254 257 257 254 253 249 243 251 261 257 252 254 250 241 235 229 223 224 221 213 212 216 214 208 202 200 199 198 200 198 189 175 164 162 167 168 164 155 146 138 135 134 120 125 148 136 125 178 193 196 204 208 219 234 216 199 204 211 214 218 216 218 218 229 232 185
135 165 188 199 216 227 226 223 226 231 233 233 225 225 232 231 233 248 265 271 270 267 261 253 244 236 240 251 253 247 246 246 243 239 231 224 223 223 218 214 213 212 207 203 201 203 202 200 197 192 180 164 160 171 177 175 163 153 143 128 123 132 174 170 139 134 178 190 206 208 203 213 232 226 208 207 208 210 215 213 211 210 217 219 191
125 142 177 206 225 231 230 229 231 232 235 236 234 235 230 215 213 239 264 272 272 268 261 252 244 235 233 240 245 245 245 246 246 241 231 223 221 223 222 215 212 211 206 201 202 205 204 201 198 195 189 179 170 173 182 183 174 165 155 142 130 156 209 163 148 155 181 196 216 204 194 201 208 222 229 222 216 212 212 209 212 217 215 201 187
120 134 169 211 234 240 239 238 236 230 232 238 242 244 235 210 189 200 221 232 242 249 253 252 245 238 237 241 245 247 246 242 238 234 229 222 219 220 221 216 212 211 206 201 203 206 205 203 202 199 197 194 181 175 181 184 182 181 170 161 164 190 174 152 151 167 179 199 211 191 193 212 213 222 231 224 217 215 221 220 218 221 219 201 182
124 161 214 230 237 242 243 244 241 234 236 244 247 247 239 219 205 211 216 215 217 230 239 242 240 242 246 250 253 248 239 234 229 227 227 221 214 214 217 216 213 210 208 206 208 210 209 208 205 203 201 198 188 180 182 182 185 192 185 166 151 165 166 160 161 156 156 185 192 192 212 227 224 222 219 215 214 218 228 227 218 216 217 211 199
116 151 229 249 243 240 240 245 243 240 243 249 252 248 238 228 226 224 220 217 220 228 230 226 226 234 243 252 252 240 230 230 225 222 224 218 212 212 215 214 211 209 210 213 216 215 213 210 206 204 202 201 198 192 187 184 187 190 187 178 142 150 167 173 179 163 144 158 175 191 205 208 208 204 210 218 218 223 231 234 226 217 218 220 223
47 56 308 262 248 239 236 239 242 244 248 252 253 248 240 235 233 230 227 224 223 228 225 217 220 224 231 244 242 231 224 222 220 220 219 214 211 211 213 213 210 208 212 218 221 220 216 212 208 205 204 204 206 204 196 192 192 190 189 190 163 157 167 177 179 161 139 154 175 178 167 170 181 183 205 222 217 219 222 233 233 219 221 222 227
333 345 320 270 246 237 235 237 239 243 246 251 253 247 243 242 237 233 233 229 221 220 215 204 212 219 224 234 234 228 218 210 210 216 214 208 207 209 213 214 212 210 211 216 223 224 218 216 215 211 209 209 207 208 207 202 199 194 194 193 172 162 159 154 173 168 144 144 165 172 171 170 155 152 186 215 210 218 220 235 241 222 225 231 238
339 330 306 276 251 237 234 234 238 243 245 249 254 250 245 245 244 240 238 234 221 211 199 189 202 213 214 221 228 231 225 211 209 211 209 204 203 207 213 213 210 209 209 212 222 225 222 219 219 215 212 212 210 210 211 208 204 200 202 204 197 187 181 184 189 184 175 153 144 163 175 174 150 145 179 207 200 213 230 243 250 251 255 254 259